1514203200.11,41987,9.31,73626.0,-4.37,-4.65,-4.65,0,*53
1514203201.31,41988,9.31,73612.5,-4.37,-4.65,-4.65,0,*5C
1514203202.53,41989,9.31,73610.5,-4.35,-4.65,-4.61,0,*5B
1514203203.73,41990,9.31,73610.8,-4.37,-4.65,-4.61,0,*51
1514203204.92,41991,9.31,73612.0,-4.37,-4.61,-4.65,0,*50
1514203206.15,41992,9.31,73622.3,-4.39,-4.69,-4.65,0,*55
1514203207.37,41993,9.25,73616.5,-4.39,-4.65,-4.65,0,*58
1514203208.63,41994,9.31,73618.3,-4.39,-4.69,-4.69,0,*5F
1514203209.82,41995,9.31,73634.0,-4.37,-4.61,-4.65,0,*54
1514203211.01,41996,9.31,73636.3,-4.37,-4.65,-4.61,0,*57
1514203212.2,41997,9.31,73638.3,-4.37,-4.65,-4.65,0,*52
1514203213.4,41998,9.31,73644.8,-4.37,-4.65,-4.61,0,*59
1514203214.59,41999,9.31,73642.8,-4.37,-4.61,-4.61,0,*5C
1514203215.78,42000,9.31,73634.5,-4.37,-4.61,-4.65,0,*52
1514203216.97,42001,9.31,73620.8,-4.37,-4.61,-4.61,0,*57
1514203218.16,42002,9.31,73622.8,-4.37,-4.65,-4.61,0,*50
1514203219.36,42003,9.31,73628.0,-4.37,-4.65,-4.61,0,*51
1514203220.59,42004,9.31,73632.5,-4.39,-4.69,-4.65,0,*50
1514203221.8,42005,9.31,73630.3,-4.39,-4.65,-4.65,0,*5D
1514203223.03,42006,9.31,73628.0,-4.35,-4.65,-4.61,0,*56
1514203224.23,42007,9.31,73618.3,-4.37,-4.65,-4.65,0,*51
1514203225.45,42008,9.31,73612.3,-4.35,-4.65,-4.61,0,*58
1514203226.68,42009,9.31,73612.8,-4.35,-4.61,-4.61,0,*5D
1514203227.91,42010,9.25,73610.5,-4.35,-4.61,-4.65,0,*51
1514203229.1,42011,9.31,73612.3,-4.37,-4.61,-4.65,0,*52
1514203230.33,42012,9.31,73618.8,-4.35,-4.65,-4.65,0,*57
1514203231.52,42013,9.31,73620.5,-4.37,-4.61,-4.61,0,*54
1514203232.72,42014,9.31,73626.0,-4.37,-4.65,-4.61,0,*57
1514203233.97,42015,9.31,73626.3,-4.39,-4.69,-4.69,0,*5C
1514203235.2,42016,9.31,73634.0,-4.35,-4.65,-4.65,0,*53
1514203236.39,42017,9.25,73632.0,-4.37,-4.65,-4.65,0,*50
1514203237.61,42018,9.25,73630.8,-4.37,-4.61,-4.73,0,*5C
1514203238.8,42019,9.31,73626.3,-4.37,-4.61,-4.65,0,*5A
1514203239.99,42020,9.31,73620.5,-4.37,-4.61,-4.61,0,*54
1514203241.22,42021,9.31,73606.8,-4.35,-4.65,-4.65,0,*57
1514203242.41,42022,9.31,73600.5,-4.37,-4.65,-4.65,0,*56
1514203243.61,42023,9.31,73612.0,-4.37,-4.65,-4.61,0,*53
1514203244.83,42024,9.25,73616.0,-4.35,-4.65,-4.65,0,*52
1514203246.03,42025,9.31,73626.0,-4.37,-4.65,-4.65,0,*51
1514203247.22,42026,9.31,73620.3,-4.37,-4.65,-4.65,0,*52
1514203248.45,42027,9.31,73618.3,-4.35,-4.65,-4.65,0,*51
1514203249.64,42028,9.31,73620.0,-4.37,-4.61,-4.65,0,*58
1514203250.87,42029,9.31,73614.0,-4.35,-4.61,-4.65,0,*5B
1514203252.12,42030,9.31,73622.5,-4.35,-4.65,-4.73,0,*50
1514203253.35,42031,9.31,73618.5,-4.35,-4.61,-4.65,0,*52
1514203254.54,42032,9.31,73622.8,-4.37,-4.65,-4.61,0,*53
1514203255.75,42033,9.31,73626.3,-4.37,-4.73,-4.65,0,*51
1514203256.95,42034,9.31,73610.5,-4.37,-4.65,-4.65,0,*51
1514203258.17,42035,9.31,73612.0,-4.35,-4.65,-4.65,0,*52
1514203259.4,42036,9.31,73614.5,-4.35,-4.65,-4.61,0,*55
1514203260.6,42037,9.31,73608.3,-4.37,-4.65,-4.65,0,*52
1514203261.82,42038,9.31,73602.0,-4.35,-4.61,-4.65,0,*5B
1514203263.02,42039,9.31,73620.3,-4.37,-4.61,-4.65,0,*58
1514203264.24,42040,9.31,73602.5,-4.35,-4.61,-4.61,0,*50
1514203265.48,42041,9.31,73636.8,-4.39,-4.69,-4.65,0,*51
1514203266.67,42042,9.31,73664.8,-4.37,-4.61,-4.65,0,*54
1514203267.86,42043,9.31,73650.0,-4.37,-4.65,-4.65,0,*51
1514203269.06,42044,9.31,73646.0,-4.37,-4.65,-4.61,0,*52
1514203270.25,42045,9.31,73642.0,-4.37,-4.65,-4.65,0,*57
1514203271.44,42046,9.31,73630.3,-4.37,-4.65,-4.65,0,*54
1514203272.67,42047,9.31,73620.5,-4.35,-4.61,-4.65,0,*53
1514203273.86,42048,9.31,73614.5,-4.37,-4.65,-4.65,0,*5A
1514203275.05,42049,9.31,73610.3,-4.37,-4.65,-4.65,0,*5B
1514203276.25,42050,9.31,73606.0,-4.37,-4.65,-4.65,0,*53
1514203277.48,42051,9.31,73616.8,-4.35,-4.65,-4.61,0,*54
1514203278.67,42052,9.31,73638.3,-4.37,-4.65,-4.61,0,*55
1514203279.86,42053,9.31,73636.8,-4.37,-4.61,-4.65,0,*54
1514203281.09,42054,9.31,73632.5,-4.35,-4.65,-4.65,0,*55
1514203282.32,42055,9.31,73628.0,-4.35,-4.65,-4.61,0,*50
1514203283.54,42056,9.31,73614.5,-4.35,-4.61,-4.61,0,*57
1514203284.74,42057,9.31,73614.8,-4.37,-4.65,-4.65,0,*54
1514203285.96,42058,9.31,73614.5,-4.35,-4.65,-4.65,0,*59
1514203287.16,42059,9.31,73626.5,-4.37,-4.65,-4.65,0,*5A
1514203288.41,42060,9.31,73630.3,-4.35,-4.73,-4.65,0,*55
1514203289.6,42061,9.31,73626.8,-4.37,-4.61,-4.61,0,*51
1514203290.83,42062,9.31,73618.3,-4.35,-4.61,-4.65,0,*54
1514203292.02,42063,9.31,73618.3,-4.37,-4.61,-4.65,0,*57
1514203293.21,42064,9.31,73620.5,-4.37,-4.65,-4.65,0,*54
1514203294.46,42065,9.31,73630.8,-4.35,-4.73,-4.61,0,*54
1514203295.65,42066,9.31,73636.3,-4.37,-4.65,-4.65,0,*56
1514203296.85,42067,9.31,73654.0,-4.37,-4.65,-4.65,0,*57
1514203298.04,42068,9.31,73632.0,-4.37,-4.65,-4.65,0,*58
1514203299.27,42069,9.31,73628.3,-4.35,-4.65,-4.61,0,*5F
1514203300.5,42070,9.31,73624.3,-4.35,-4.61,-4.57,0,*56
1514203301.69,42071,9.25,73608.0,-4.37,-4.65,-4.65,0,*50
1514203302.91,42072,9.31,73610.3,-4.33,-4.69,-4.61,0,*5F
1514203304.14,42073,9.31,73590.8,-4.35,-4.65,-4.65,0,*50
1514203305.33,42074,9.31,73618.3,-4.37,-4.65,-4.65,0,*55
1514203306.55,42075,9.31,73626.5,-4.37,-4.73,-4.65,0,*53
1514203307.76,42076,9.25,73610.5,-4.37,-4.73,-4.65,0,*50
1514203308.99,42077,9.31,73608.3,-4.35,-4.65,-4.65,0,*54
1514203310.18,42078,9.31,73622.0,-4.37,-4.61,-4.65,0,*5D
1514203311.41,42079,9.31,73656.8,-4.35,-4.61,-4.61,0,*5A
1514203312.66,42080,9.31,73644.3,-4.35,-4.73,-4.65,0,*5B
1514203313.89,42081,9.31,73646.0,-4.35,-4.65,-4.65,0,*5D
1514203315.08,42082,9.31,73646.5,-4.37,-4.65,-4.65,0,*5C
1514203316.27,42083,9.31,73634.8,-4.37,-4.65,-4.65,0,*5D
1514203317.47,42084,9.31,73624.3,-4.37,-4.65,-4.65,0,*5A
1514203318.69,42085,9.31,73634.8,-4.35,-4.61,-4.65,0,*5D
1514203319.89,42086,9.31,73638.0,-4.37,-4.65,-4.65,0,*58
1514203321.12,42087,9.31,73646.0,-4.35,-4.65,-4.65,0,*5B
1514203322.34,42088,9.31,73646.5,-4.35,-4.65,-4.65,0,*54
1514203323.55,42089,9.31,73640.5,-4.33,-4.61,-4.61,0,*53
1514203324.78,42090,9.31,73640.3,-4.35,-4.65,-4.61,0,*59
1514203325.97,42091,9.25,73632.5,-4.37,-4.65,-4.65,0,*5E
1514203327.2,42092,9.31,73636.8,-4.35,-4.61,-4.65,0,*5B
1514203328.39,42093,9.31,73640.5,-4.37,-4.61,-4.65,0,*58
1514203329.62,42094,9.31,73656.8,-4.35,-4.61,-4.65,0,*5D
1514203330.81,42095,9.31,73632.0,-4.37,-4.61,-4.65,0,*5E
1514203332.04,42096,9.25,73632.3,-4.35,-4.61,-4.65,0,*5F
1514203333.27,42097,9.31,73638.8,-4.35,-4.61,-4.65,0,*5E
1514203334.46,42098,9.31,73636.0,-4.37,-4.65,-4.65,0,*57
1514203335.65,42099,9.31,73640.5,-4.37,-4.65,-4.65,0,*56
1514203336.85,42100,9.31,73642.0,-4.37,-4.65,-4.65,0,*57
1514203338.04,42101,9.31,73620.5,-4.37,-4.65,-4.65,0,*56
1514203339.23,42102,9.31,73624.5,-4.37,-4.65,-4.65,0,*55
1514203340.46,42103,9.31,73618.8,-4.35,-4.65,-4.65,0,*56
1514203341.65,42104,9.31,73624.8,-4.37,-4.61,-4.65,0,*57
1514203342.9,42105,9.31,73630.5,-4.35,-4.73,-4.65,0,*57
1514203344.15,42106,9.31,73620.3,-4.35,-4.73,-4.61,0,*50
1514203345.38,42107,9.31,73612.3,-4.35,-4.65,-4.65,0,*52
1514203346.61,42108,9.31,73598.0,-4.35,-4.61,-4.65,0,*59
1514203347.84,42109,9.31,73608.8,-4.35,-4.65,-4.65,0,*5C
1514203349.03,42110,9.31,73606.0,-4.37,-4.65,-4.65,0,*56
1514203350.22,42111,9.31,73606.5,-4.37,-4.65,-4.65,0,*57
1514203351.45,42112,9.31,73618.5,-4.35,-4.65,-4.65,0,*56
1514203352.64,42113,9.31,73624.5,-4.37,-4.65,-4.65,0,*55
1514203353.89,42114,9.31,73636.8,-4.35,-4.65,-4.73,0,*57
1514203355.12,42115,9.31,73676.5,-4.35,-4.61,-4.61,0,*51
1514203356.35,42116,9.31,73650.3,-4.35,-4.61,-4.61,0,*52
1514203357.54,42117,9.31,73618.0,-4.37,-4.65,-4.65,0,*51
1514203358.77,42118,9.31,73614.8,-4.35,-4.65,-4.61,0,*58
1514203360.0,42119,9.31,73604.5,-4.35,-4.65,-4.65,0,*5D
1514203361.23,42120,9.31,73612.0,-4.35,-4.65,-4.65,0,*57
1514203362.42,42121,9.31,73622.5,-4.37,-4.65,-4.65,0,*54
1514203363.61,42122,9.31,73636.3,-4.37,-4.65,-4.65,0,*57
1514203364.84,42123,9.31,73636.0,-4.35,-4.65,-4.61,0,*50
1514203366.03,42124,9.31,73624.0,-4.37,-4.65,-4.65,0,*51
1514203367.29,42125,9.25,73632.0,-4.39,-4.69,-4.69,0,*5E
1514203368.48,42126,9.31,73642.0,-4.37,-4.65,-4.61,0,*57
1514203369.68,42127,9.31,73644.5,-4.37,-4.65,-4.61,0,*56
1514203370.9,42128,9.31,73648.3,-4.35,-4.65,-4.65,0,*5F
1514203372.13,42129,9.31,73642.5,-4.35,-4.65,-4.65,0,*5E
1514203373.36,42130,9.31,73640.5,-4.35,-4.61,-4.65,0,*52
1514203374.55,42131,9.31,73640.8,-4.37,-4.65,-4.65,0,*55
1514203375.77,42132,9.25,73640.8,-4.37,-4.73,-4.65,0,*51
1514203376.98,42133,9.31,73644.5,-4.37,-4.73,-4.65,0,*50
1514203378.17,42134,9.31,73644.5,-4.37,-4.65,-4.65,0,*50
1514203379.4,42135,9.31,73652.3,-4.35,-4.65,-4.61,0,*57
1514203380.61,42136,9.31,73652.8,-4.33,-4.65,-4.61,0,*52
1514203381.82,42137,9.31,73658.3,-4.37,-4.73,-4.65,0,*54
1514203383.01,42138,9.31,73646.0,-4.37,-4.61,-4.65,0,*58
1514203384.2,42139,9.31,73648.8,-4.37,-4.65,-4.61,0,*59
1514203385.4,42140,9.31,73644.8,-4.37,-4.65,-4.61,0,*57
1514203386.59,42141,9.31,73636.5,-4.37,-4.65,-4.65,0,*52
1514203387.78,42142,9.31,73638.3,-4.37,-4.65,-4.65,0,*51
1514203388.97,42143,9.31,73628.8,-4.37,-4.61,-4.65,0,*54
1514203390.2,42144,9.31,73624.8,-4.35,-4.65,-4.65,0,*55
1514203391.43,42145,9.31,73626.5,-4.35,-4.65,-4.65,0,*54
1514203392.62,42146,9.31,73628.0,-4.37,-4.65,-4.65,0,*55
1514203393.82,42147,9.31,73624.0,-4.37,-4.65,-4.65,0,*54
1514203395.03,42148,9.31,73622.3,-4.37,-4.73,-4.65,0,*5C
1514203396.22,42149,9.31,73624.5,-4.37,-4.65,-4.61,0,*5E
1514203397.47,42150,9.31,73644.0,-4.35,-4.73,-4.65,0,*57
1514203398.67,42151,9.31,73650.5,-4.37,-4.65,-4.65,0,*53
1514203399.87,42152,9.31,73648.5,-4.33,-4.61,-4.57,0,*51
1514203401.06,42153,9.31,73678.5,-4.37,-4.65,-4.65,0,*51
1514203402.29,42154,9.25,73640.5,-4.35,-4.65,-4.61,0,*50
1514203403.5,42155,9.31,73644.8,-4.33,-4.61,-4.61,0,*53
1514203404.72,42156,9.31,73636.8,-4.35,-4.65,-4.61,0,*52
1514203405.97,42157,9.31,73614.5,-4.35,-4.73,-4.65,0,*50
1514203407.2,42158,9.31,73622.8,-4.33,-4.69,-4.61,0,*56
1514203408.39,42159,9.25,73614.5,-4.37,-4.65,-4.65,0,*5B
1514203409.62,42160,9.31,73618.5,-4.35,-4.61,-4.61,0,*53
1514203410.81,42161,9.25,73636.3,-4.37,-4.61,-4.61,0,*50
1514203412.02,42162,9.31,73644.0,-4.33,-4.57,-4.61,0,*52
1514203413.21,42163,9.31,73634.0,-4.37,-4.65,-4.61,0,*56
1514203414.4,42164,9.31,73636.5,-4.37,-4.65,-4.65,0,*55
1514203415.63,42165,9.31,73646.0,-4.35,-4.61,-4.61,0,*56
1514203416.86,42166,9.31,73644.0,-4.35,-4.65,-4.65,0,*55
1514203418.05,42167,9.31,73636.0,-4.37,-4.61,-4.65,0,*52
1514203419.28,42168,9.31,73638.8,-4.35,-4.61,-4.65,0,*5F
1514203420.51,42169,9.31,73654.8,-4.35,-4.65,-4.65,0,*5A
1514203421.7,42170,9.31,73644.5,-4.37,-4.61,-4.65,0,*54
1514203422.89,42171,9.31,73640.8,-4.37,-4.65,-4.65,0,*51
1514203424.12,42172,9.31,73620.8,-4.35,-4.65,-4.65,0,*50
1514203425.35,42173,9.31,73650.5,-4.35,-4.61,-4.65,0,*55
1514203426.54,42174,9.31,73654.5,-4.37,-4.65,-4.65,0,*54
1514203427.77,42175,9.31,73652.5,-4.35,-4.65,-4.65,0,*57
1514203429.0,42176,9.31,73638.5,-4.35,-4.61,-4.65,0,*50
1514203430.23,42177,9.31,73628.0,-4.35,-4.65,-4.61,0,*51
1514203431.46,42178,9.31,73616.5,-4.35,-4.65,-4.65,0,*5A
1514203432.68,42179,9.31,73630.8,-4.35,-4.65,-4.65,0,*5B
1514203433.91,42180,9.25,73620.0,-4.35,-4.65,-4.65,0,*5D
1514203435.14,42181,9.31,73622.3,-4.35,-4.65,-4.65,0,*5C
1514203436.33,42182,9.31,73630.0,-4.37,-4.61,-4.65,0,*59
1514203437.56,42183,9.31,73650.3,-4.35,-4.61,-4.65,0,*5A
1514203438.79,42184,9.31,73658.5,-4.35,-4.65,-4.65,0,*59
1514203440.02,42185,9.31,73652.8,-4.35,-4.61,-4.61,0,*58
1514203441.25,42186,9.31,73650.0,-4.35,-4.61,-4.65,0,*5F
1514203442.48,42187,9.31,73656.0,-4.35,-4.65,-4.61,0,*5E
1514203443.7,42188,9.31,73650.0,-4.35,-4.65,-4.61,0,*51
1514203444.93,42189,9.31,73638.8,-4.35,-4.65,-4.61,0,*50
1514203446.16,42190,9.31,73626.5,-4.35,-4.65,-4.61,0,*58
1514203447.35,42191,9.31,73618.5,-4.37,-4.65,-4.65,0,*5F
1514203448.58,42192,9.31,73610.3,-4.35,-4.65,-4.65,0,*5E
1514203449.81,42193,9.31,73642.5,-4.35,-4.65,-4.61,0,*5B
1514203451.04,42194,9.31,73638.5,-4.35,-4.65,-4.65,0,*58
1514203452.23,42195,9.25,73614.8,-4.37,-4.65,-4.65,0,*5B
1514203453.46,42196,9.25,73614.0,-4.35,-4.65,-4.65,0,*5A
1514203454.65,42197,9.31,73618.3,-4.37,-4.65,-4.61,0,*5D
1514203455.84,42198,9.31,73622.8,-4.37,-4.65,-4.65,0,*56
1514203457.07,42199,9.31,73626.0,-4.35,-4.65,-4.61,0,*51
1514203458.3,42200,9.31,73630.8,-4.35,-4.65,-4.61,0,*52
1514203459.53,42201,9.31,73630.0,-4.35,-4.65,-4.61,0,*53
1514203460.73,42202,9.31,73634.8,-4.33,-4.61,-4.61,0,*52
1514203461.96,42203,9.31,73642.0,-4.35,-4.65,-4.65,0,*55
1514203463.15,42204,9.31,73642.0,-4.37,-4.61,-4.65,0,*54
1514203464.35,42205,9.31,73640.8,-4.37,-4.65,-4.65,0,*51
1514203465.56,42206,9.25,73658.5,-4.37,-4.73,-4.65,0,*55
1514203466.75,42207,9.31,73654.5,-4.37,-4.65,-4.65,0,*53
1514203467.98,42208,9.31,73656.3,-4.33,-4.69,-4.61,0,*50
1514203469.18,42209,9.25,73660.3,-4.33,-4.61,-4.57,0,*5C
1514203470.41,42210,9.31,73638.3,-4.35,-4.61,-4.61,0,*57
1514203471.61,42211,9.31,73646.0,-4.33,-4.61,-4.61,0,*50
1514203472.84,42212,9.31,73634.5,-4.35,-4.65,-4.61,0,*51
1514203474.07,42213,9.25,73634.3,-4.35,-4.65,-4.61,0,*50
1514203475.28,42214,9.31,73642.8,-4.33,-4.61,-4.61,0,*55
1514203476.5,42215,9.31,73640.8,-4.35,-4.65,-4.61,0,*56
1514203477.73,42216,9.31,73626.8,-4.35,-4.61,-4.61,0,*51
1514203478.96,42217,9.31,73622.0,-4.35,-4.61,-4.65,0,*54
1514203480.15,42218,9.25,73630.0,-4.37,-4.65,-4.65,0,*5D
1514203481.35,42219,9.31,73632.3,-4.37,-4.65,-4.65,0,*5C
1514203482.57,42220,9.31,73632.8,-4.35,-4.65,-4.61,0,*50
1514203483.78,42221,9.31,73630.8,-4.33,-4.57,-4.57,0,*53
1514203485.01,42222,9.31,73616.5,-4.35,-4.65,-4.65,0,*56
1514203486.2,42223,9.25,73610.3,-4.37,-4.65,-4.65,0,*55
1514203487.43,42224,9.25,73616.5,-4.35,-4.61,-4.61,0,*50
1514203488.66,42225,9.31,73624.0,-4.35,-4.65,-4.61,0,*55
1514203489.85,42226,9.31,73620.5,-4.37,-4.65,-4.61,0,*54
1514203491.08,42227,9.31,73612.0,-4.35,-4.65,-4.65,0,*53
1514203492.31,42228,9.31,73608.3,-4.35,-4.65,-4.61,0,*58
1514203493.54,42229,9.31,73608.0,-4.35,-4.65,-4.61,0,*59
1514203494.77,42230,9.25,73600.5,-4.35,-4.65,-4.65,0,*55
1514203496.0,42231,9.31,73614.0,-4.35,-4.65,-4.65,0,*54
1514203497.2,42232,9.31,73616.5,-4.33,-4.61,-4.61,0,*51
1514203498.4,42233,9.31,73614.0,-4.33,-4.61,-4.61,0,*50
1514203499.63,42234,9.31,73620.3,-4.35,-4.65,-4.65,0,*51
1514203500.86,42235,9.31,73622.0,-4.35,-4.65,-4.61,0,*54
1514203502.09,42236,9.31,73642.8,-4.35,-4.65,-4.65,0,*53
1514203503.32,42237,9.31,73640.8,-4.35,-4.65,-4.61,0,*56
1514203504.55,42238,9.31,73654.5,-4.35,-4.65,-4.65,0,*5D
1514203505.78,42239,9.31,73656.3,-4.35,-4.65,-4.65,0,*5C
1514203507.0,42240,9.31,73656.8,-4.35,-4.65,-4.61,0,*56
1514203508.23,42241,9.25,73650.8,-4.35,-4.61,-4.65,0,*57
1514203509.46,42242,9.25,73644.8,-4.35,-4.65,-4.65,0,*50
1514203510.65,42243,9.31,73638.3,-4.37,-4.61,-4.65,0,*57
1514203511.88,42244,9.31,73644.8,-4.35,-4.65,-4.65,0,*56
1514203513.13,42245,9.31,73638.3,-4.35,-4.65,-4.73,0,*50
1514203514.36,42246,9.31,73638.0,-4.35,-4.65,-4.65,0,*54
1514203515.59,42247,9.31,73634.8,-4.35,-4.61,-4.61,0,*55
1514203516.82,42248,9.31,73630.5,-4.35,-4.65,-4.65,0,*5A
1514203518.05,42249,9.31,73640.5,-4.35,-4.61,-4.65,0,*5F
1514203519.24,42250,9.31,73630.3,-4.37,-4.65,-4.65,0,*51
1514203520.49,42251,9.25,73630.5,-4.35,-4.73,-4.65,0,*55
1514203521.69,42252,9.25,73620.3,-4.33,-4.61,-4.61,0,*57
1514203522.92,42253,9.31,73626.0,-4.35,-4.65,-4.65,0,*50
1514203524.13,42254,9.31,73628.3,-4.33,-4.57,-4.61,0,*54
1514203525.36,42255,9.31,73634.5,-4.35,-4.65,-4.65,0,*56
1514203526.59,42256,9.31,73636.0,-4.35,-4.65,-4.61,0,*51
1514203527.78,42257,9.31,73642.0,-4.37,-4.65,-4.65,0,*56
1514203528.97,42258,9.25,73632.5,-4.37,-4.65,-4.65,0,*59
1514203530.2,42259,9.31,73626.5,-4.35,-4.65,-4.65,0,*5A
1514203531.43,42260,9.31,73622.8,-4.35,-4.65,-4.65,0,*50
1514203532.64,42261,9.31,73638.5,-4.33,-4.61,-4.57,0,*52
1514203533.87,42262,9.31,73640.3,-4.35,-4.65,-4.65,0,*52
1514203535.06,42263,9.31,73640.0,-4.37,-4.61,-4.65,0,*55
1514203536.25,42264,9.31,73632.5,-4.37,-4.65,-4.65,0,*56
1514203537.48,42265,9.31,73626.0,-4.35,-4.65,-4.61,0,*51
1514203538.73,42266,9.31,73618.8,-4.35,-4.73,-4.61,0,*55
1514203539.92,42267,9.31,73612.5,-4.37,-4.65,-4.61,0,*51
1514203541.11,42268,9.31,73620.0,-4.37,-4.65,-4.65,0,*5A
1514203542.31,42269,9.31,73636.5,-4.37,-4.65,-4.61,0,*5F
1514203543.51,42270,9.31,73644.8,-4.33,-4.65,-4.65,0,*57
1514203544.74,42271,9.25,73646.3,-4.35,-4.65,-4.65,0,*50
1514203545.97,42272,9.31,73648.3,-4.35,-4.65,-4.61,0,*57
1514203547.17,42273,9.31,73658.0,-4.33,-4.61,-4.61,0,*54
1514203548.4,42274,9.31,73656.5,-4.35,-4.65,-4.61,0,*51
1514203549.65,42275,9.31,73658.8,-4.35,-4.73,-4.61,0,*57
1514203550.88,42276,9.31,73654.3,-4.35,-4.65,-4.65,0,*57
1514203552.11,42277,9.31,73646.8,-4.35,-4.61,-4.65,0,*52
1514203553.34,42278,9.31,73644.0,-4.35,-4.61,-4.65,0,*5D
1514203554.56,42279,9.31,73642.0,-4.35,-4.65,-4.65,0,*58
1514203555.79,42280,9.31,73634.5,-4.35,-4.65,-4.65,0,*5E
1514203557.02,42281,9.31,73636.8,-4.35,-4.65,-4.61,0,*5B
1514203558.21,42282,9.25,73638.5,-4.37,-4.65,-4.65,0,*5E
1514203559.42,42283,9.25,73634.5,-4.33,-4.61,-4.65,0,*5F
1514203560.63,42284,9.25,73622.8,-4.33,-4.57,-4.61,0,*59
1514203561.86,42285,9.31,73628.5,-4.35,-4.65,-4.61,0,*5F
1514203563.08,42286,9.31,73626.0,-4.35,-4.61,-4.61,0,*58
1514203564.33,42287,9.31,73626.3,-4.35,-4.73,-4.65,0,*5E
1514203565.56,42288,9.31,73626.0,-4.35,-4.65,-4.61,0,*52
1514203566.79,42289,9.31,73626.8,-4.35,-4.61,-4.61,0,*57
1514203567.98,42290,9.31,73632.0,-4.37,-4.65,-4.61,0,*59
1514203569.23,42291,9.31,73632.5,-4.35,-4.73,-4.61,0,*5D
1514203570.45,42292,9.25,73624.0,-4.33,-4.69,-4.61,0,*53
1514203571.68,42293,9.31,73634.0,-4.35,-4.65,-4.61,0,*58
1514203572.89,42294,9.31,73638.5,-4.33,-4.57,-4.61,0,*58
1514203574.12,42295,9.31,73632.8,-4.35,-4.61,-4.65,0,*5E
1514203575.32,42296,9.31,73616.3,-4.33,-4.65,-4.61,0,*5B
1514203576.55,42297,9.31,73606.0,-4.35,-4.65,-4.65,0,*58
1514203577.74,42298,9.25,73614.0,-4.37,-4.65,-4.61,0,*51
1514203578.97,42299,9.31,73626.0,-4.35,-4.65,-4.65,0,*56
1514203580.18,42300,9.31,73626.5,-4.33,-4.57,-4.57,0,*51
1514203581.41,42301,9.31,73618.3,-4.35,-4.61,-4.65,0,*52
1514203582.64,42302,9.31,73620.5,-4.35,-4.61,-4.61,0,*55
1514203583.87,42303,9.31,73604.5,-4.35,-4.65,-4.61,0,*50
1514203585.07,42304,9.25,73614.8,-4.33,-4.61,-4.57,0,*50
1514203586.3,42305,9.31,73616.8,-4.35,-4.65,-4.61,0,*56
1514203587.53,42306,9.31,73616.0,-4.35,-4.65,-4.65,0,*51
1514203588.72,42307,9.31,73608.0,-4.37,-4.65,-4.65,0,*52
1514203589.93,42308,9.31,73632.0,-4.33,-4.61,-4.61,0,*59
1514203591.16,42309,9.31,73638.3,-4.35,-4.65,-4.65,0,*5E
1514203592.38,42310,9.31,73628.8,-4.33,-4.69,-4.61,0,*58
1514203593.63,42311,9.31,73618.8,-4.35,-4.73,-4.65,0,*50
1514203594.83,42312,9.31,73618.0,-4.33,-4.61,-4.61,0,*52
1514203596.06,42313,9.31,73616.8,-4.35,-4.65,-4.65,0,*55
1514203597.27,42314,9.31,73624.5,-4.33,-4.61,-4.61,0,*54
1514203598.49,42315,9.31,73644.3,-4.33,-4.69,-4.57,0,*58
1514203599.72,42316,9.31,73632.0,-4.35,-4.65,-4.61,0,*54
1514203600.95,42317,9.31,73622.0,-4.35,-4.65,-4.65,0,*51
1514203602.2,42318,9.31,73642.8,-4.35,-4.65,-4.73,0,*59
1514203603.43,42319,9.31,73646.0,-4.35,-4.61,-4.65,0,*5B
1514203604.62,42320,9.31,73618.8,-4.37,-4.65,-4.61,0,*53
1514203605.85,42321,9.31,73618.8,-4.35,-4.65,-4.61,0,*50
1514203607.07,42322,9.25,73636.3,-4.35,-4.65,-4.61,0,*53
1514203608.3,42323,9.25,73642.8,-4.35,-4.61,-4.61,0,*56
1514203609.51,42324,9.31,73644.3,-4.33,-4.61,-4.57,0,*52
1514203610.76,42325,9.31,73658.0,-4.35,-4.61,-4.73,0,*53
1514203611.98,42326,9.31,73668.3,-4.33,-4.69,-4.61,0,*5D
1514203613.2,42327,9.31,73668.3,-4.37,-4.61,-4.73,0,*53
1514203614.4,42328,9.31,73656.8,-4.33,-4.61,-4.57,0,*5E
1514203615.62,42329,9.25,73660.0,-4.37,-4.65,-4.73,0,*59
1514203616.82,42330,9.25,73656.8,-4.33,-4.61,-4.61,0,*52
1514203618.05,42331,9.31,73646.3,-4.35,-4.61,-4.65,0,*51
1514203619.27,42332,9.31,73654.0,-4.33,-4.69,-4.61,0,*58
1514203620.5,42333,9.31,73652.3,-4.35,-4.65,-4.65,0,*57
1514203621.73,42334,9.31,73652.3,-4.35,-4.65,-4.65,0,*50
1514203622.92,42335,9.25,73644.8,-4.37,-4.61,-4.65,0,*57
1514203624.14,42336,9.31,73648.3,-4.33,-4.69,-4.61,0,*5C
1514203625.37,42337,9.31,73638.3,-4.35,-4.61,-4.65,0,*57
1514203626.6,42338,9.31,73632.5,-4.35,-4.65,-4.65,0,*5C
1514203627.83,42339,9.25,73638.3,-4.35,-4.65,-4.61,0,*59
1514203629.06,42340,9.31,73654.8,-4.35,-4.65,-4.65,0,*53
1514203630.26,42341,9.31,73640.5,-4.33,-4.61,-4.61,0,*54
1514203631.47,42342,9.31,73646.8,-4.33,-4.61,-4.61,0,*57
1514203632.7,42343,9.25,73636.0,-4.35,-4.65,-4.61,0,*54
1514203633.89,42344,9.31,73614.3,-4.37,-4.65,-4.65,0,*55
1514203635.12,42345,9.25,73622.8,-4.35,-4.65,-4.65,0,*56
1514203636.32,42346,9.25,73628.3,-4.33,-4.57,-4.61,0,*56
1514203637.53,42347,9.25,73652.3,-4.33,-4.57,-4.61,0,*57
1514203638.73,42348,9.31,73648.8,-4.37,-4.65,-4.65,0,*59
1514203639.95,42349,9.31,73626.8,-4.35,-4.65,-4.61,0,*5E
1514203641.16,42350,9.31,73654.5,-4.33,-4.61,-4.57,0,*51
1514203642.38,42351,9.25,73652.3,-4.33,-4.69,-4.61,0,*5D
1514203643.61,42352,9.31,73656.0,-4.33,-4.69,-4.61,0,*5E
1514203644.83,42353,9.25,73656.5,-4.35,-4.65,-4.61,0,*55
1514203646.06,42354,9.31,73652.3,-4.35,-4.61,-4.61,0,*56
1514203647.29,42355,9.31,73668.5,-4.35,-4.65,-4.61,0,*53
1514203648.52,42356,9.25,73670.3,-4.35,-4.65,-4.65,0,*54
1514203649.75,42357,9.31,73652.5,-4.35,-4.65,-4.61,0,*51
1514203650.95,42358,9.31,73640.5,-4.33,-4.61,-4.57,0,*59
1514203652.16,42359,9.31,73638.8,-4.33,-4.57,-4.57,0,*5D
1514203653.37,42360,9.31,73636.8,-4.33,-4.61,-4.61,0,*57
1514203654.57,42361,9.31,73636.3,-4.33,-4.61,-4.57,0,*53
1514203655.78,42362,9.31,73632.3,-4.33,-4.61,-4.61,0,*55
1514203656.99,42363,9.31,73628.3,-4.33,-4.57,-4.57,0,*54
1514203658.2,42364,9.31,73638.8,-4.33,-4.57,-4.61,0,*56
1514203659.42,42365,9.31,73634.0,-4.35,-4.65,-4.65,0,*54
1514203660.65,42366,9.25,73632.5,-4.35,-4.65,-4.65,0,*57
1514203661.86,42367,9.31,73640.0,-4.33,-4.61,-4.57,0,*55
1514203663.09,42368,9.31,73642.8,-4.35,-4.65,-4.65,0,*59
1514203664.3,42369,9.25,73644.0,-4.33,-4.57,-4.61,0,*5B
1514203665.5,42370,9.31,73646.5,-4.33,-4.61,-4.57,0,*53
1514203666.73,42371,9.31,73652.8,-4.35,-4.61,-4.65,0,*55
1514203667.93,42372,9.31,73656.3,-4.33,-4.61,-4.57,0,*51
1514203669.14,42373,9.25,73662.3,-4.33,-4.61,-4.57,0,*50
1514203670.35,42374,9.31,73658.3,-4.33,-4.61,-4.61,0,*52
1514203671.55,42375,9.31,73652.5,-4.33,-4.57,-4.61,0,*56
1514203672.76,42376,9.31,73646.3,-4.33,-4.57,-4.61,0,*55
1514203673.99,42377,9.31,73648.5,-4.35,-4.61,-4.65,0,*53
1514203675.21,42378,9.31,73652.3,-4.33,-4.69,-4.57,0,*53
1514203676.44,42379,9.31,73634.5,-4.35,-4.65,-4.61,0,*5D
1514203677.69,42380,9.31,73626.0,-4.35,-4.73,-4.61,0,*5C
1514203678.91,42381,9.31,73648.8,-4.37,-4.73,-4.65,0,*5B
1514203680.11,42382,9.25,73634.5,-4.33,-4.61,-4.61,0,*5B
1514203681.3,42383,9.31,73654.0,-4.37,-4.65,-4.61,0,*5A
1514203682.53,42384,9.31,73646.3,-4.35,-4.65,-4.65,0,*5B
1514203683.76,42385,9.31,73650.0,-4.35,-4.65,-4.61,0,*5E
1514203684.96,42386,9.31,73638.5,-4.33,-4.61,-4.61,0,*5F
1514203686.17,42387,9.25,73644.3,-4.33,-4.57,-4.61,0,*5B
1514203687.42,42388,9.31,73650.8,-4.35,-4.73,-4.65,0,*50
1514203688.63,42389,9.31,73654.3,-4.33,-4.57,-4.61,0,*55
1514203689.83,42390,9.31,73652.0,-4.33,-4.61,-4.61,0,*58
1514203691.06,42391,9.25,73642.3,-4.33,-4.69,-4.61,0,*51
1514203692.31,42392,9.25,73644.0,-4.35,-4.73,-4.65,0,*5B
1514203693.51,42393,9.31,73640.8,-4.33,-4.61,-4.61,0,*5B
1514203694.73,42394,9.31,73626.5,-4.37,-4.65,-4.73,0,*5F
1514203695.96,42395,9.31,73654.0,-4.35,-4.65,-4.65,0,*5B
1514203697.15,42396,9.31,73644.8,-4.37,-4.65,-4.61,0,*5E
1514203698.38,42397,9.31,73634.8,-4.35,-4.65,-4.65,0,*59
1514203699.6,42398,9.31,73636.0,-4.35,-4.65,-4.65,0,*56
1514203700.81,42399,9.31,73630.3,-4.33,-4.57,-4.61,0,*54
1514203702.04,42400,9.31,73624.0,-4.33,-4.69,-4.57,0,*5B
1514203703.27,42401,9.25,73602.0,-4.33,-4.61,-4.69,0,*5F
1514203704.52,42402,9.31,73600.3,-4.35,-4.65,-4.73,0,*55
1514203705.72,42403,9.31,73620.5,-4.33,-4.61,-4.57,0,*50
1514203706.95,42404,9.31,73626.3,-4.35,-4.65,-4.65,0,*54
1514203708.18,42405,9.31,73640.0,-4.35,-4.65,-4.61,0,*51
1514203709.39,42406,9.31,73646.5,-4.37,-4.73,-4.65,0,*53
1514203710.64,42407,9.25,73644.0,-4.35,-4.65,-4.73,0,*50